www.pogodaiklimat.ru
ПОГОДА в Кашкадарье

Архив погоды в Кашкадарье (Кашкадарьинская область, Узбекистан)

Время
и дата
02:30 17.04
02:40 17.04
02:50 17.04
03:00 17.04
03:10 17.04
03:20 17.04
03:30 17.04
03:40 17.04
03:50 17.04
04:00 17.04
04:20 17.04
04:30 17.04
04:40 17.04
04:50 17.04
05:00 17.04
05:10 17.04
05:20 17.04
05:30 17.04
05:40 17.04
05:50 17.04
06:00 17.04
06:10 17.04
06:20 17.04
06:30 17.04
06:40 17.04
06:50 17.04
07:00 17.04
07:10 17.04
07:20 17.04
08:30 17.04
09:00 17.04
10:40 17.04
16:20 17.04
16:40 17.04
16:50 17.04
17:00 17.04
17:10 17.04
17:20 17.04
17:30 17.04
17:40 17.04
17:50 17.04
18:00 17.04
18:10 17.04
18:20 17.04
18:30 17.04
18:40 17.04
18:50 17.04
19:00 17.04
19:20 17.04
19:30 17.04
19:40 17.04
19:50 17.04
20:00 17.04
20:10 17.04
20:20 17.04
20:30 17.04
20:40 17.04
20:50 17.04
21:00 17.04
21:10 17.04
21:20 17.04
21:30 17.04
21:50 17.04
22:00 17.04
22:10 17.04
22:20 17.04
22:30 17.04
22:40 17.04
22:50 17.04
23:00 17.04
23:10 17.04
23:30 17.04
23:50 17.04
00:00 18.04
00:10 18.04
00:40 18.04
00:50 18.04
01:00 18.04
01:10 18.04
01:20 18.04
01:30 18.04
01:40 18.04
01:50 18.04
02:10 18.04
02:20 18.04
02:30 18.04
02:40 18.04
03:00 18.04
03:10 18.04
03:20 18.04
03:30 18.04
03:40 18.04
03:50 18.04
04:00 18.04
04:10 18.04
04:20 18.04
04:30 18.04
04:40 18.04
05:00 18.04
05:40 18.04
05:50 18.04
06:00 18.04
06:10 18.04
06:20 18.04
06:30 18.04
06:40 18.04
06:50 18.04
07:00 18.04
07:10 18.04
07:20 18.04
07:40 18.04
08:00 18.04
08:10 18.04
08:20 18.04
10:50 18.04
11:30 18.04
12:10 20.04
12:20 20.04
12:40 20.04
12:50 20.04
13:00 20.04
13:10 20.04
13:30 20.04
13:40 20.04
14:00 20.04
14:20 20.04
14:30 20.04
14:40 20.04
15:00 20.04
15:10 20.04
15:30 20.04
15:50 20.04
16:00 20.04
16:20 20.04
16:30 20.04
16:40 20.04
16:50 20.04
17:00 20.04
17:10 20.04
17:20 20.04
17:30 20.04
17:50 20.04
18:00 20.04
18:10 20.04
Ветер
(напр.,м/с)
Видимость Явления Солнечная радиация
(Вт/м2)
Т
(С)
Тd
(С)
f
(%)
Тe
(С)
Тes
(С)
Комфортность P
(гПа)
Po
(гПа)
Тmin
(С)
Tmax
(С)
R
(мм)
ЮВ 0.5
{0.8}
+11.4 +11.4 100 +12 +12 1019.4 975.5 +11.4 +11.3
СВ 0.4
{1.3}
+11.2 +11.2 100 +12 +12 1019.2 975.4 +11.4 +11.3
СВ 0.6
{1.1}
+11.1 +11.1 100 +11 +11 1019.4 975.5 +11.2 +11.1
С 0.6
{1.1}
+11.3 +11.3 100 +12 +12 1019.2 975.4 +11.3 +11.1
В 0.9
{1.6}
+11.0 +11.0 100 +11 +11 1019.4 975.5 +11.4 +11.0
В 1.1
{2.0}
+11.3 +11.3 100 +11 +11 1019.4 975.5 +11.4 +11.0
СВ 1.4
{2.6}
+11.9 +11.9 100 +11 +11 1019.1 975.3 +11.9 +11.3
СВ 1.7
{3.5}
+12.3 +12.3 100 +11 +11 1018.9 975.1 +12.3 +11.9
СВ 1.7
{2.7}
+12.3 +12.3 100 +11 +11 1018.8 975.0 +12.4 +12.2
СВ 1.6
{3.4}
+12.3 +12.3 100 +11 +11 1018.6 974.8 +12.3 +12.2
СВ 1.9
{3.5}
+12.1 +12.1 100 +11 +11 1018.4 974.6 +12.2 +12.1
В 1.4
{2.6}
+11.9 +11.9 100 +11 +11 1018.4 974.6 +12.2 +11.9
В 1.3
{2.6}
+11.6 +11.6 100 +11 +11 1018.3 974.5 +12.0 +11.7
В 2.4
{4.0}
+11.7 +11.7 100 +10 +10 1018.2 974.4 +11.7 +11.6
В 2.0
{3.8}
+11.5 +11.5 100 +10 +10 1018.1 974.3 +11.7 +11.5
В 1.5
{3.0}
+11.3 +11.3 100 +10 +10 1018.2 974.4 +11.5 +11.3
В 1.4
{2.8}
+11.2 +11.2 100 +10 +10 1018.2 974.4 +11.3 +11.2
В 1.7
{3.3}
+11.2 +11.2 100 +10 +10 1018.2 974.4 +11.3 +11.1
В 1.6
{3.1}
+11.2 +11.2 100 +10 +10 1018.1 974.3 +11.2 +11.0
В 1.6
{3.1}
+11.1 +11.1 100 +10 +10 1018.2 974.4 +11.2 +11.1
СВ 1.3
{3.0}
+11.2 +11.2 100 +10 +10 1018.2 974.4 +11.2 +11.1
СВ 2.3
{3.8}
+11.4 +11.4 100 +10 +10 1018.2 974.4 +11.4 +11.2
С 2.3
{3.9}
+11.2 +11.2 100 +10 +10 1018.2 974.4 +11.4 +11.2
СВ 3.4
{5.9}
+10.9 +10.9 100 +9 +9 1018.3 974.5 +11.2 +10.9
СВ 2.5
{4.8}
+11.2 +11.2 100 +9 +9 1018.3 974.5 +11.2 +10.9
СВ 2.1
{4.9}
+11.6 +11.6 100 +10 +10 1018.3 974.5 +11.6 +11.2
СВ 2.3
{4.0}
+12.0 +12.0 100 +11 +11 1018.3 974.5 +12.0 +11.6
СВ 2.6
{4.5}
+12.3 +12.3 100 +11 +11 1018.3 974.5 +12.3 +12.0
СВ 2.3
{3.9}
+12.8 +12.8 100 +12 +12 1018.2 974.4 +12.7 +12.3
СВ 1.3
{2.6}
+16.2 +13.2 82 +17 +17 1018.1 974.3 +16.2 +15.7
СВ 1.3
{2.3}
+18.0 +13.4 74 +19 +19 1017.8 974.0 +18.0 +17.1
С 2.3
{4.9}
+20.6 +12.2 58 +23 +23 комфорт 1017.1 973.3 +20.8 +20.4
СВ 3.4
{6.9}
+24.8 +9.9 39 +26 +26 жарко 1012.3 968.7 +25.2 +24.8
СВ 3.0
{5.9}
+25.5 +11.4 41 +27 +27 жарко 1012.0 968.4 +25.4 +24.9
С 2.4
{5.0}
+25.2 +12.2 44 +27 +27 жарко 1011.9 968.3 +25.5 +25.0
С 3.1
{5.8}
+24.9 +11.8 44 +26 +26 жарко 1011.9 968.3 +25.6 +24.8
С 4.5
{8.8}
+24.6 +11.6 44 +26 +26 жарко 1011.9 968.3 +24.9 +24.5
С 4.7
{8.5}
+24.4 +11.4 44 +26 +26 жарко 1012.0 968.4 +24.6 +24.3
С 4.3
{9.3}
+24.2 +10.9 43 +25 +25 комфорт 1012.0 968.4 +24.5 +24.2
С 4.4
{8.3}
+23.9 +11.1 45 +25 +25 комфорт 1012.0 968.4 +24.2 +23.8
С 4.5
{9.1}
+23.8 +11.2 45 +25 +25 комфорт 1012.0 968.4 +24.0 +23.7
С 4.6
{8.4}
+23.4 +10.9 45 +26 +26 жарко 1012.0 968.4 +23.8 +23.4
С 5.2
{9.8}
+23.1 +11.2 47 +25 +25 комфорт 1012.0 968.4 +23.4 +23.1
С 3.8
{7.1}
+22.9 +11.3 48 +25 +25 комфорт 1012.0 968.4 +23.2 +22.9
С 3.5
{7.8}
+22.7 +11.7 50 +25 +25 комфорт 1012.0 968.4 +23.0 +22.7
С 3.7
{7.4}
+22.3 +11.4 50 +24 +24 комфорт 1012.0 968.4 +22.7 +22.3
С 3.6
{6.9}
+22.0 +11.4 51 +24 +24 комфорт 1012.0 968.4 +22.3 +22.0
С 4.3
{7.7}
+21.4 +11.3 53 +23 +23 комфорт 1012.0 968.4 +22.0 +21.5
С 4.1
{7.7}
+20.7 +11.2 54 +23 +23 комфорт 1011.8 968.2 +21.1 +20.7
С 3.7
{6.6}
+20.3 +11.2 56 +22 +22 комфорт 1011.9 968.3 +20.7 +20.3
С 3.7
{6.7}
+20.1 +11.2 57 +22 +22 комфорт 1012.0 968.4 +20.4 +20.1
С 3.4
{6.3}
+19.7 +11.4 59 +21 +21 комфорт 1012.0 968.4 +20.1 +19.7
С 3.6
{6.7}
+19.4 +11.6 61 +21 +21 комфорт 1012.0 968.4 +19.7 +19.4
С 3.9
{6.8}
+19.2 +11.7 62 +20 +20 1012.1 968.5 +19.4 +19.2
С 2.8
{6.2}
+19.0 +11.6 62 +20 +20 1012.2 968.6 +19.2 +18.9
С 3.1
{5.8}
+18.9 +11.5 62 +20 +20 1012.2 968.6 +19.0 +18.8
С 2.9
{5.2}
+18.8 +11.6 63 +20 +20 1012.3 968.7 +18.9 +18.7
С 2.6
{4.4}
+18.4 +11.5 64 +19 +19 1012.3 968.7 +18.8 +18.4
С 2.3
{4.8}
+18.3 +11.5 64 +19 +19 1012.3 968.7 +18.5 +18.2
С 2.0
{3.9}
+18.1 +11.6 66 +19 +19 1012.3 968.7 +18.3 +18.1
С 1.9
{4.1}
+18.0 +11.6 66 +19 +19 1012.3 968.7 +18.1 +18.0
С 2.4
{4.7}
+17.9 +11.6 66 +18 +18 1012.2 968.6 +18.0 +17.9
СВ 2.5
{3.9}
+17.9 +11.2 65 +18 +18 1012.1 968.5 +17.9 +17.8
С 2.4
{4.6}
+17.9 +11.1 64 +18 +18 1012.1 968.5 +17.9 +17.7
СВ 2.1
{4.0}
+17.5 +11.1 66 +18 +18 1012.0 968.4 +17.9 +17.5
СВ 2.4
{4.1}
+17.3 +11.2 67 +17 +17 1012.0 968.4 +17.5 +17.4
СВ 2.0
{3.7}
+17.1 +11.2 68 +17 +17 1012.0 968.4 +17.4 +17.1
СВ 2.3
{4.0}
+17.0 +11.3 69 +17 +17 1011.9 968.3 +17.3 +17.0
С 2.1
{3.8}
+17.1 +11.2 68 +17 +17 1011.9 968.3 +17.0 +16.9
С 1.7
{3.1}
+16.8 +11.2 70 +17 +17 1011.8 968.2 +17.1 +16.7
СВ 2.3
{4.3}
+17.1 +11.0 67 +17 +17 1011.8 968.2 +17.1 +16.7
СВ 2.9
{5.0}
+16.9 +11.0 68 +17 +17 1011.5 967.9 +17.1 +16.9
СВ 2.9
{5.4}
+16.6 +11.0 69 +16 +16 1011.4 967.8 +16.8 +16.6
С 2.7
{4.6}
+16.5 +11.0 70 +16 +16 1011.2 967.6 +16.7 +16.5
СВ 2.6
{4.3}
+16.4 +11.0 70 +16 +16 1011.2 967.6 +16.6 +16.4
СВ 1.7
{3.3}
+16.1 +11.0 72 +16 +16 1010.7 967.2 +16.3 +16.0
С 1.9
{4.2}
+15.9 +11.1 73 +16 +16 1010.7 967.2 +16.1 +15.9
СВ 1.4
{3.3}
+15.6 +11.0 74 +16 +16 1010.6 967.1 +15.9 +15.6
СВ 1.2
{2.6}
+15.5 +11.1 75 +16 +16 1010.5 967.0 +15.6 +15.4
С 1.4
{2.4}
+15.3 +11.2 77 +16 +16 1010.3 966.8 +15.6 +15.3
СВ 1.2
{2.6}
+15.2 +11.2 77 +16 +16 1010.2 966.7 +15.4 +15.1
С 1.2
{2.8}
+15.0 +11.3 79 +15 +15 1010.0 966.5 +15.2 +14.9
С 2.1
{3.7}
+15.3 +11.3 77 +15 +15 1009.8 966.3 +15.3 +14.9
С 1.8
{3.3}
+15.3 +11.3 77 +15 +15 1009.7 966.2 +15.4 +15.2
СВ 1.5
{3.0}
+15.1 +11.2 78 +15 +15 1009.7 966.2 +15.3 +15.1
С 1.5
{3.2}
+15.0 +11.3 79 +15 +15 1009.7 966.2 +15.2 +14.9
СВ 1.4
{3.0}
+15.0 +11.2 78 +15 +15 1009.6 966.1 +15.1 +14.9
С 1.1
{2.6}
+14.7 +11.2 80 +15 +15 1009.6 966.1 +14.8 +14.4
С 1.4
{3.4}
+14.7 +11.2 80 +15 +15 1009.5 966.0 +14.7 +14.5
С 1.3
{2.5}
+14.4 +11.2 81 +15 +15 1009.5 966.0 +14.7 +14.4
СВ 1.6
{3.5}
+14.4 +11.1 81 +14 +14 1009.4 965.9 +14.7 +14.4
С 1.5
{2.7}
+14.5 +11.3 81 +14 +14 1009.4 965.9 +14.5 +14.3
С 1.5
{2.7}
+14.2 +11.3 83 +14 +14 1009.4 965.9 +14.5 +14.2
СВ 1.6
{2.8}
+14.1 +11.3 83 +14 +14 1009.3 965.8 +14.3 +14.1
С 1.9
{2.9}
+14.1 +11.3 83 +14 +14 1009.3 965.8 +14.3 +14.0
С 1.9
{3.2}
+14.0 +11.3 84 +14 +14 1009.2 965.7 +14.2 +14.0
СВ 1.6
{2.8}
+14.1 +11.3 83 +14 +14 1009.2 965.7 +14.2 +14.0
С 1.4
{2.7}
+14.0 +11.3 84 +14 +14 1009.1 965.6 +14.1 +13.8
СВ 1.4
{2.8}
+14.1 +11.1 82 +14 +14 1009.0 965.5 +14.1 +13.9
СВ 1.6
{2.7}
+13.9 +10.9 82 +14 +14 1009.0 965.5 +14.2 +13.9
СВ 1.6
{3.1}
+13.9 +10.9 82 +14 +14 1009.0 965.5 +14.0 +13.8
СВ 1.9
{3.3}
+14.1 +10.8 81 +14 +14 1009.0 965.5 +14.1 +13.9
СВ 2.1
{4.0}
+14.2 +10.9 81 +14 +14 1009.1 965.6 +14.2 +14.1
СВ 2.1
{4.1}
+14.1 +10.9 81 +14 +14 1009.1 965.6 +14.2 +14.0
СВ 2.0
{3.6}
+14.2 +11.1 82 +14 +14 1009.2 965.7 +14.2 +14.1
СВ 2.5
{4.6}
+14.2 +11.2 82 +13 +13 1009.1 965.6 +14.2 +14.1
СВ 2.3
{4.2}
+14.4 +11.4 82 +14 +14 1009.1 965.6 +14.4 +14.2
В 2.1
{3.8}
+14.7 +11.5 82 +14 +14 1009.1 965.6 +14.7 +14.4
В 2.2
{5.0}
+14.9 +11.7 81 +15 +15 1009.1 965.6 +14.9 +14.7
В 1.8
{4.0}
+15.3 +12.2 82 +15 +15 1009.1 965.6 +15.3 +14.9
В 2.4
{4.3}
+15.9 +12.1 78 +16 +16 1009.2 965.7 +16.0 +15.8
ЮВ 1.3
{2.6}
+17.3 +12.6 74 +18 +18 1009.2 965.7 +17.3 +16.6
ЮВ 1.2
{2.6}
+18.1 +13.5 75 +19 +19 1009.2 965.7 +18.1 +17.3
В 1.1
{2.5}
+18.8 +13.5 72 +21 +21 комфорт 1009.3 965.8 +18.8 +18.1
ЮЗ 0.9
{2.4}
+24.8 +12.8 47 +27 +27 жарко 1009.3 965.8 +24.7 +23.7
З 1.6
{2.8}
+25.2 +12.9 47 +27 +27 жарко 1009.1 965.6 +25.3 +24.7
ЮЗ 2.1
{3.9}
+28.3 +12.2 37 +29 +29 жарко 1008.6 965.1 +28.5 +27.6
ЮЗ 2.1
{5.3}
+28.7 +11.5 34 +29 +29 жарко 1008.5 965.0 +28.7 +27.9
Ю 2.8
{6.2}
+28.7 +10.4 32 +29 +29 жарко 1008.4 964.9 +29.4 +28.5
Ю 1.4
{4.1}
+28.9 +10.4 32 +29 +29 жарко 1008.4 964.9 +29.4 +28.5
ЮЗ 3.0
{6.2}
+28.9 +9.6 30 +29 +29 жарко 1008.4 964.9 +29.0 +28.1
ЮЗ 3.2
{5.7}
+28.7 +10.1 31 +29 +29 жарко 1008.5 965.0 +28.9 +28.2
ЮЗ 2.9
{6.1}
+28.9 +8.4 28 +28 +28 жарко 1008.4 964.9 +29.6 +28.5
ЮЗ 2.0
{4.8}
+29.1 +7.9 26 +28 +28 жарко 1008.4 964.9 +29.2 +28.5
ЮЗ 2.0
{5.3}
+29.2 +8.6 28 +29 +29 жарко 1008.4 964.9 +29.6 +28.7
ЮЗ 2.9
{6.5}
+29.3 +8.3 27 +29 +29 жарко 1008.1 964.7 +29.8 +29.2
Ю 3.6
{6.2}
+29.5 +8.8 27 +29 +29 жарко 1008.3 964.8 +29.6 +29.1
ЮЗ 2.0
{4.7}
+29.6 +7.8 25 +29 +29 жарко 1008.1 964.7 +29.8 +29.0
ЮЗ 2.7
{5.3}
+29.9 +9.4 28 +30 +30 жарко 1008.0 964.6 +30.0 +29.0
ЮЗ 2.5
{5.6}
+29.3 +9.4 29 +29 +29 жарко 1008.0 964.6 +29.9 +29.0
ЮЗ 2.7
{5.8}
+28.3 +7.5 27 +28 +28 жарко 1007.9 964.5 +28.9 +28.1
ЮЗ 1.5
{4.4}
+29.3 +8.3 27 +29 +29 жарко 1007.9 964.5 +29.2 +28.5
Ю 1.9
{4.8}
+29.5 +9.8 29 +29 +29 жарко 1007.9 964.5 +29.6 +29.0
Ю 1.8
{4.3}
+28.9 +11.0 33 +29 +29 жарко 1008.0 964.6 +29.1 +28.7
Ю 1.9
{4.7}
+28.8 +9.1 29 +29 +29 жарко 1008.0 964.6 +29.4 +28.8
Ю 1.2
{4.2}
+29.7 +8.7 27 +29 +29 жарко 1008.0 964.6 +29.8 +28.8
ЮЗ 1.0
{3.2}
+29.1 +8.9 28 +29 +29 жарко 1008.0 964.6 +29.7 +28.8
ЮЗ 1.3
{2.5}
+29.1 +7.0 25 +28 +28 жарко 1008.0 964.6 +29.4 +29.1
СЗ 0.7
{1.7}
+29.7 +7.3 25 +29 +29 жарко 1008.0 964.6 +29.8 +29.1
СЗ 0.9
{2.9}
+30.0 +7.7 25 +29 +29 жарко 1008.0 964.6 +30.1 +29.5
С 1.3
{3.1}
+29.6 +9.6 29 +29 +29 жарко 1008.0 964.6 +30.3 +29.0
Ю 2.0
{4.3}
+28.8 +8.2 27 +28 +28 жарко 1008.0 964.6 +29.1 +28.8
ЮВ 2.4
{5.5}
+28.7 +7.6 26 +28 +28 жарко 1008.1 964.7 +29.0 +28.7
В 3.2
{7.0}
+27.0 +12.0 39 +28 +28 жарко 1008.3 964.8 +28.7 +27.0
Местоположение метеостанции Кашкадарья (Кашкадарьинская область, Узбекистан): широта 38.82 долгота 65.77 высота над уровнем моря 0 м.
В архиве по умолчанию представлена погода в Кашкадарье за последние 1-2 суток. Обновление информации о фактической погоде в базе происходит ежечасно! Архивные данные за месяц целиком и за предыдущие месяцы Вы можете получить, выбрав интересующий диапазон дат из раскрывающегося списка и нажав кнопку "Ввод!".
*Определитесь, кто Вы:
Внимание! Время в таблицах - местное (без учета летнего времени). Для получения всемирного времени необходимо вычесть поправку, которая равна 5 ч.
Смотрите также архив погоды на ближайших метеорологических станциях:
Партнеры нашего сайта:      
Пояснения к столбцам:
  • Ветер - указаны скорость ветра в м/с - средняя за 10 мин, порывы в срок и между сроками (в фигурных скобках) и направление, откуда дует ветер: С - северный,
  • СВ - северо-восточный, В - восточный, ЮВ - юго-восточный, Ю - южный, ЮЗ - юго-западный, З - западный, СЗ - северо-западный.
  • Видимость - горизонтальная дальность видимости в метрах или километрах. При видимости от 1 до 10 км при отсутствии осадков обычно наблюдается дымка, при ухудшении видимости до 1 км и менее - туман. В сухую погоду видимость может ухудшаться дымом, пылью или мглою.
  • Явления - указаны атмосферные явления, наблюдавшиеся в срок или в последний час перед сроком.
  • Солнечная радиация - мощность потока солнечного излучения на поверхность земли и предметов в Вт/м2.
  • T - Температура воздуха - температура, измеренная на высоте 2 м над землей.
  • Td - Температура точки росы - температура, при понижении до которой содержащийся в воздухе водяной пар достигнет насыщения.
  • f - Относительная влажность воздуха - влажноcть воздуха, измеренная на высоте 2 м над землей.
  • Te - Эффективная температура - температура, которую ощущает одетый по сезону человек в тени. Характеристика душности погоды. При расчете учитывается влияние влажности воздуха и скорости ветра на теплоощущения человека.
  • Tes - Эффективная температура на солнце - температура, которую ощущает человек, с поправкой на солнечный нагрев. Характеристика знойности погоды. Зависит от высоты солнца над горизонтом, облачности и скорости ветра. Ночью, в пасмурную погоду, а также при ветре 12 м/с и более поправка равна нулю.
  • P - Атмосферное давление - приведенное к уровню моря атмосферное давление.
  • Po - Атмосферное давление - измеренное на уровне метеостанции атмосферное давление.
  • Tmin - Минимальная температура - минимум температуры воздуха на высоте 2 м над землей.
  • Tmax - Максимальная температура - максимум температуры воздуха на высоте 2 м над землей.
  • R - Количество осадков - Количество выпавших осадков за период времени, мм. При наведении курсора мыши на число - период времени, за который выпало указанное количество осадков.